{"data":{"norad_id":64929,"intl_designator":"2025-157AB","name":"STARLINK-34290","alt_names":[],"object_type":"PAYLOAD","status":"ACTIVE","operator":null,"country":"US","launch_date":"2025-07-26","launch_site_code":"AFETR","launch_vehicle":null,"mission":null,"orbit_class":"UNKNOWN","rcs_meters":null,"size_class":null,"mass_kg":null,"dimensions":null,"purposes":["comms"],"wikipedia_slug":null,"has_3d_model":false,"image_url":null,"decayed_at":null,"tle_current":{"epoch":"2026-05-24T20:25:42.176640Z","epoch_age_seconds":81773,"freshness":"FRESH","line1":"1 64929U 25157AB  26144.85118260  .00027207  00000+0  92737-3 0  9996","line2":"2 64929  53.1601 351.9590 0001064  86.8510 273.2613 15.30199590 47781","mean_motion":15.3019959,"eccentricity":0.0001064,"inclination_deg":53.1601,"raan_deg":351.959,"arg_perigee_deg":86.851,"mean_anomaly_deg":273.2613,"bstar":0.00092737,"rev_number":4778,"period_min":94.105370920927,"perigee_km":474.48709681526,"apogee_km":475.94549039613,"semimajor_km":6853.3532936057,"source":"CELESTRAK","updated_at":"2026-05-25T13:38:20.626737Z"}}}